Flag for Uzbekistan Weather past 2 weeks in Samarkand, Uzbekistan

Now
77 °F

Clear.


Feels Like: 78 °F
Forecast: 58 / 97 °F
Wind: 6 mph from Southeast

Location: Samarkand

Current Time: Aug 30, 2014 at 11:40:13 PM

Latest Report: Aug 30, 2014 at 10:00 PM


Visibility: N/A

Pressure: 29.80 "Hg

Humidity: 34%

Dew point: 46 °F

Location of SamarkandLocation

Historic Weather in Samarkand — Graph

°F

Samarkand temperature yesterday

Maximum temperature yesterday: 91 °F (at 2:00 PM)
Minimum temperature yesterday: 64 °F (at 6:00 AM)
Average temperature yesterday: 80 °F

Past Weeks' High & Low Weather Summary

 TemperatureHumidityPressure
High97 °F (Aug 21, 3:30 PM)68% (Aug 21, 5:00 AM)29.98 "Hg (Aug 21, 5:00 AM)
Low63 °F (Aug 16, 5:30 AM)10% (Aug 25, 1:00 PM)29.71 "Hg (Aug 22, 12:30 AM)
Average80 °F30%29.85 "Hg
* Reported Aug 15 9:00 PM — Aug 30 9:30 PM, Samarkand, Weather by CustomWeather, © 2014

Note: Actual official high and low records may vary slightly from our data, if they occured in-between our weather recording intervals... More about our weather records

Advertising

Samarkand weather history for previous 24 hours

 ConditionsComfort  
Time TempWeatherWind HumidityBarometerVisibility
9:30 PM
Aug 30
77 °FClear.6 mph34%29.80 "HgN/A
9:00 PM77 °FClear.6 mph34%29.80 "HgN/A
8:30 PM81 °FClear.3 mph28%29.80 "HgN/A
8:00 PM82 °FClear.3 mph23%29.80 "HgN/A
7:30 PM82 °FClear.3 mph25%29.80 "HgN/A
7:00 PM84 °FClear.6 mph25%29.80 "HgN/A
6:00 PM91 °FClear.1 mph18%29.80 "HgN/A
5:00 PM91 °FClear.6 mph17%29.80 "HgN/A
4:30 PM93 °FClear.6 mph15%29.80 "HgN/A
4:00 PM93 °FClear.6 mph14%29.80 "HgN/A
3:30 PM93 °FClear.6 mph15%29.80 "HgN/A
3:00 PM93 °FClear.6 mph17%29.80 "HgN/A
2:30 PM93 °FClear.6 mph15%29.80 "HgN/A
2:00 PM93 °FClear.3 mph17%29.83 "HgN/A
1:30 PM91 °FClear.3 mph16%29.83 "HgN/A
1:00 PM91 °FClear.3 mph17%29.83 "HgN/A
11:00 AM88 °FClear.8 mph17%29.83 "HgN/A
10:30 AM86 °FClear.8 mph20%29.83 "HgN/A
10:00 AM84 °FClear.8 mph22%29.83 "HgN/A
9:30 AM81 °FClear.8 mph28%29.83 "HgN/A
9:00 AM79 °FClear.6 mph30%29.83 "HgN/A
8:30 AM75 °FClear.6 mph34%29.83 "HgN/A
8:00 AM73 °FClear.6 mph33%29.83 "HgN/A
7:30 AM70 °FClear.6 mph38%29.83 "HgN/A
7:00 AM66 °FClear.3 mph46%29.83 "HgN/A
6:30 AM64 °FClear.6 mph49%29.83 "HgN/A
6:00 AM64 °FClear.6 mph46%29.83 "HgN/A
5:30 AM68 °FClear.8 mph38%29.83 "HgN/A
5:00 AM68 °FClear.8 mph35%29.83 "HgN/A
4:00 AM66 °FClear.8 mph46%29.83 "HgN/A
3:00 AM68 °FClear.8 mph43%29.83 "HgN/A
2:30 AM73 °FClear.13 mph29%29.83 "HgN/A
2:00 AM72 °FClear.10 mph33%29.83 "HgN/A
12:00 AM75 °FClear.8 mph29%29.86 "HgN/A
11:00 PM
Aug 29
77 °FClear.8 mph28%29.86 "HgN/A
Weather by CustomWeather, © 2014

See weather overviewHow to use our weather pages